Starlink 30479

operational
NORAD ID: 57898 Int'l Des: 2023-146 Owner: SPXS Country: US Constellation: starlink
LEOCIRCULAR

Starlink 30479について

説明を読み込み中...

リアルタイム位置

3D地球を読み込み中...

次回通過

高度履歴

Altitude vs Time

uPlot chart will show altitude changes over time

軌道要素

1 57898U 23146H 25304.70538014 .00003048 00000-0 24049-3 0 9992
2 57898 43.0038 294.2137 0001273 274.0101 86.0596 15.02557920117664
Epoch: Oct 31, 2025 • Age: 26 hours

現在のステータス

高度 562.5 km
速度 7.59 km/s
衛星直下点 41.30°N, 34.79°E
打ち上げ日 Sep 20, 2023
運用期間 2.1 years
タイプ internet

技術仕様

分類 Payload
質量 730.00 kg
乾燥質量 700.00 kg
総質量 730.00 kg
長さ 0.30 m
直径 4.10 m
スパン 29.00 m
形状 Box + pan
製造者 SPXS
バスタイプ Starlink V2M
フェーズステータス In Orbit
所有者/国 SPXS/US

大規模コンステレーション

Loading constellations...